User: anonymous   Login
Location: Caltech
(34.1382°N, 118.1253°W)
Time: 02:17:04
(UTC-07:00)
Language:

Meteor 1-11 Rocket - Orbit

View from above orbital plane
View from above orbital plane
View from above satellite
View from above satellite

Ground track
Ground track

The orbit data is extracted from the following two-line orbital elements,

1  5918U 72022B   17086.93723684 +.00000001 +00000-0 -67142-5 0  9997
2  5918 081.2383 044.4664 0058124 193.8495 166.1083 14.05820417306317
Epoch (UTC): 27 March 2017 22:29:37
Eccentricity: 0.0058124
inclination: 81.2383°
perigee height: 831 km
apogee height: 916 km
right ascension of ascending node: 44.4664°
argument of perigee: 193.8495°
revolutions per day: 14.05820417
mean anomaly at epoch: 166.1083°
orbit number at epoch: 30631

The dashed part of the orbit path shows where the satellite is in the earth's shadow,  

DLR